Regional Weather Roundup
Issued by NWS

Home | Current Version | Previous Version | Text Only | Print | Product List | Glossary Off
Versions: 1 2 3 4 5 6 7 8 9 10 11 12 13 14 15 16 17 18 19 20 21 22 23 24 25 26 27 28 29 30 31 32 33 34 35 36 37 38 39 40 41 42 43 44 45 46 47 48 49 50

000
ASUS43 KFSD 021402
RWRSD

WEATHER ROUNDUP FOR SOUTH DAKOTA
NATIONAL WEATHER SERVICE SIOUX FALLS SD
900 AM CDT WED SEP 02 2015

NOTE: "FAIR" INDICATES FEW OR NO CLOUDS BELOW 12,000 FEET WITH NO
SIGNIFICANT WEATHER AND/OR OBSTRUCTIONS TO VISIBILITY.


SDZ001>005-009-010-012>017-021500-
NORTHWEST AND NORTH CENTRAL SOUTH DAKOTA

CITY           SKY/WX    TMP DP  RH WIND       PRES   REMARKS
BUFFALO          N/A     65  56  72 E7        29.78R
FAITH            N/A     66  56  70 SE3       29.82R
MOBRIDGE       FOG       65  65 100 SE5       29.79S VSB 1/2
$$

SDZ012>016-024>037-041>051-057-063-072>074-021500-
SOUTHWEST AND SOUTH CENTRAL SOUTH DAKOTA

CITY           SKY/WX    TMP DP  RH WIND       PRES   REMARKS
RAPID CTY ARPT PTSUNNY   69  57  65 CALM      29.86S
PIERRE         FOG       62  62 100 CALM      29.79R VSB<1/4
CUSTER         PTSUNNY   69  41  36 W7        30.05S
ELLSWORTH AFB  CLOUDY    71  51  49 SW1       29.85R
PHILIP         MOSUNNY   63  58  83 CALM      29.82R
PINE RIDGE     MOSUNNY   64  49  57 W3        29.92R
WINNER         FAIR      73  61  65 SW6       29.82S
$$

SDZ004>011-016>023-039-040-021500-
NORTHEAST SOUTH DAKOTA

CITY           SKY/WX    TMP DP  RH WIND       PRES   REMARKS
ABERDEEN       SUNNY     69  65  86 E6        29.81F
WATERTOWN      SUNNY     71  67  87 SE9       29.85F
BROOKINGS      SUNNY     70  64  83 SE10      29.88S
$$

SDZ017-020-022-023-036>040-048>070-021500-
SOUTHEAST SOUTH DAKOTA

CITY           SKY/WX    TMP DP  RH WIND       PRES   REMARKS
SIOUX FALLS    SUNNY     72  67  84 S10       29.86F
HURON          SUNNY     71  67  87 S9        29.80R
CHAMBERLAIN    SUNNY     70  67  92 S5        29.81R
MITCHELL       SUNNY     70  68  93 SE12      29.81S
YANKTON        SUNNY     70  66  88 SE6       29.84S
$$

ABBREVIATIONS USED IN REMARKS
   TC - TEMPERATURE IN CELSIUS
  WCI - WIND CHILL INDEX
   HX - HEAT INDEX
  VSB - VISIBILITY




USA.gov is the U.S. government's official web portal to all federal, state and local government web resources and services.